Find Starlink 30769

NORAD ID: 58138 Int'l Des: 2023-162 Owner: SPXS Country: US Constellation: starlink operational
LEOCIRCULAR

現在のビュー

3D地球を読み込み中...

About Starlink 30769

Starlink 30769 (NORAD 58138) is a starlink constellation satellite (v2 mini) launched Oct 22, 2023 by SPXS of US. It operates in LEO, CIRCULAR orbit with a mass of 730.00 kg.

次回通過

Passes for default location (London). Set your location on the main map for personalized predictions.

高度履歴

Loading altitude history...

軌道要素

1 58138U 23162W 26263.95359274 .00000175 00000-0 15893-4 0 9995
2 58138 43.0037 109.4406 0001542 257.7169 102.3510 15.27578086162175
Epoch: Sep 20, 2026 • Age: 16 hours

現在のステータス

高度 483.5 km
遠地点 / 近地点 N/A
速度 7.63 km/s
衛星直下点 25.29°N, 26.92°E
打ち上げ日 Oct 22, 2023
運用期間 2.9 years
タイプ internet

技術仕様

分類 Payload
質量 730.00 kg
乾燥質量 700.00 kg
長さ 0.30 m
スパン 29.00 m
形状 ? Box + pan
製造者 SPXS
バスタイプ Starlink V2M
フェーズステータス In Orbit
所有者/国 SPXS/US

Most Searched